User: anonymous   Login
Location: Igon
(43.1667°N, 0.2333°W)
Time: 02:38:16
(UTC+00:00)
Language:

USA 238 - Orbit

View from above orbital plane
View from above orbital plane
View from above satellite
View from above satellite

Ground track
Ground track

The orbit data is extracted from the following two-line orbital elements,

1 38758U 12048A   21059.15959387 0.00000000  00000-0  00000-0 0    03
2 38758  63.4438 100.4263 0146870 359.4887   0.5113 13.40795848    06
Epoch (UTC): 28 February 2021 03:49:48
Eccentricity: 0.0146870
inclination: 63.4438°
perigee height: 996 km
apogee height: 1216 km
right ascension of ascending node: 100.4263°
argument of perigee: 359.4887°
revolutions per day: 13.40795848
mean anomaly at epoch: 0.5113°
orbit number at epoch: 0

The dashed part of the orbit path shows where the satellite is in the earth's shadow,  

DLR